Fargo, ND

5:43 PM CST on November 21, 2019 (GMT -0600)
Hector International

Weather History for KFAR - October, 2019

Change the Weather History Date:

Wednesday, October 16, 2019

  Actual Average Record
Temperature  
Mean Temperature 40 °F 46 °F  
Max Temperature 46 °F 56 °F 83 °F (1910)
Min Temperature 35 °F 35 °F 17 °F (1952)
Degree Days  
Heating Degree Days 24 19  
Month to date heating degree days 333 258  
Since 1 July heating degree days 548 528  
Cooling Degree Days 0 0  
Month to date cooling degree days 0 0  
Year to date cooling degree days 527 548  
Moisture  
Dew Point 36 °F    
Average Humidity 82    
Maximum Humidity 93    
Minimum Humidity 68    
Precipitation  
Precipitation 0.00 in 0.07 in 1.37 in (1971)
Month to date precipitation 3.43 1.25  
Year to date precipitation 28.13 19.85  
Snow  
Snow 0.00 in 0.10 in 0.30 in (1992)
Month to date snowfall 4.5 0.2  
Since 1 July snowfall 4.5 0.2  
Since 1 September snowfall 4.5 0.2  
Snow Depth 0.00 in    
Sea Level Pressure  
Sea Level Pressure 30.11 in    
Wind  
Wind Speed 6 mph ()    
Max Wind Speed 13 mph    
Max Gust Speed 17 mph    
Visibility 10.0 miles    
Events      
T = Trace of Precipitation, MM = Missing Value Source: Averaged Metar Reports

Daily Weather History Graph

Daily Weather History Graph

Search for Another Location

Airport or City:

Astronomy

Oct. 16, 2019 Rise Set
Actual Time 7:46 AM CDT 6:38 PM CDT
Civil Twilight 7:15 AM CDT 7:09 PM CDT
Nautical Twilight 6:40 AM CDT 7:44 PM CDT
Astronomical Twilight 6:05 AM CDT 8:19 PM CDT
Moon 8:23 PM CDT (10/16) 10:25 AM CDT (10/16)
Length of Visible Light 11h 53m
Length of Day
10h 52m
Waning Gibbous, 92% of the Moon is Illuminated
Oct 16
Waning Gibbous
Oct 21
Last Quarter
Oct 27
New
Nov 4
First Quarter
Nov 12
Full

Hourly Weather History & Observations

Time (CDT) Temp. Windchill Dew Point Humidity Pressure Visibility Wind Dir Wind Speed Gust Speed Precip Events Conditions
12:53 AM 39.0 °F 33.4 °F 35.1 °F 86% 30.19 in 10.0 mi NW 8.1 mph - N/A   Overcast
1:10 AM 37.9 °F 30.5 °F 35.1 °F 89% 30.16 in 10.0 mi NW 11.5 mph - N/A   Overcast
1:31 AM 37.9 °F 30.5 °F 36.0 °F 93% 30.17 in 10.0 mi NW 11.5 mph - N/A   Overcast
1:53 AM 37.9 °F 30.9 °F 36.0 °F 93% 30.19 in 10.0 mi NNW 10.4 mph - N/A   Overcast
2:53 AM 37.9 °F 32.1 °F 36.0 °F 93% 30.20 in 10.0 mi NNW 8.1 mph - N/A   Overcast
3:53 AM 37.9 °F 31.5 °F 36.0 °F 93% 30.19 in 10.0 mi NW 9.2 mph - N/A   Overcast
4:53 AM 37.9 °F 32.1 °F 36.0 °F 93% 30.19 in 10.0 mi NW 8.1 mph - N/A   Overcast
5:30 AM 37.9 °F 31.5 °F 35.1 °F 89% 30.16 in 10.0 mi NW 9.2 mph - N/A   Overcast
5:40 AM 37.9 °F 31.5 °F 35.1 °F 89% 30.16 in 10.0 mi NW 9.2 mph - N/A   Overcast
5:53 AM 37.9 °F 32.1 °F 35.1 °F 89% 30.19 in 10.0 mi NW 8.1 mph - N/A   Overcast
6:19 AM 37.9 °F 33.5 °F 35.1 °F 89% 30.15 in 10.0 mi WNW 5.8 mph - N/A   Overcast
6:44 AM 37.4 °F 32.8 °F 35.6 °F 93% 30.15 in 10.0 mi NW 5.8 mph - N/A   Overcast
6:53 AM 37.0 °F 31.6 °F 35.1 °F 93% 30.18 in 10.0 mi NNW 6.9 mph - N/A   Overcast
7:53 AM 36.0 °F 32.1 °F 34.0 °F 93% 30.17 in 10.0 mi West 4.6 mph - N/A   Overcast
8:53 AM 37.0 °F 33.3 °F 35.1 °F 93% 30.18 in 10.0 mi West 4.6 mph - N/A   Overcast
9:33 AM 37.9 °F 33.5 °F 35.1 °F 89% 30.15 in 10.0 mi WNW 5.8 mph - N/A   Overcast
9:53 AM 39.0 °F 35.7 °F 36.0 °F 89% 30.18 in 10.0 mi North 4.6 mph - N/A   Overcast
10:12 AM 39.9 °F 37.8 °F 35.1 °F 83% 30.15 in 10.0 mi NW 3.5 mph - N/A   Overcast
10:41 AM 39.9 °F - 35.1 °F 83% 30.14 in 10.0 mi Calm Calm - N/A   Overcast
10:53 AM 39.9 °F - 35.1 °F 83% 30.17 in 10.0 mi Calm Calm - N/A   Overcast
11:53 AM 41.0 °F - 36.0 °F 82% 30.18 in 10.0 mi Calm Calm - N/A   Overcast
12:23 PM 42.1 °F 40.2 °F 36.0 °F 79% 30.14 in 10.0 mi WSW 3.5 mph - N/A   Overcast
12:53 PM 43.0 °F - 36.0 °F 76% 30.16 in 10.0 mi Calm Calm - N/A   Mostly Cloudy
1:11 PM 43.0 °F 41.3 °F 36.0 °F 76% 30.12 in 10.0 mi Variable 3.5 mph - N/A   Scattered Clouds
1:20 PM 44.1 °F 41.5 °F 36.0 °F 73% 30.11 in 10.0 mi WSW 4.6 mph - N/A   Mostly Cloudy
1:30 PM 45.0 °F 43.5 °F 36.0 °F 71% 30.11 in 10.0 mi Variable 3.5 mph - N/A   Partly Cloudy
1:53 PM 45.0 °F 41.8 °F 35.1 °F 68% 30.13 in 10.0 mi SW 5.8 mph - N/A   Partly Cloudy
2:51 PM 44.6 °F 43.1 °F 35.6 °F 71% 30.07 in 10.0 mi WSW 3.5 mph - N/A   Overcast
2:53 PM 45.0 °F 41.8 °F 35.1 °F 68% 30.10 in 10.0 mi SW 5.8 mph - N/A   Overcast
3:39 PM 45.0 °F 41.8 °F 36.0 °F 71% 30.05 in 10.0 mi SSW 5.8 mph - N/A   Overcast
3:53 PM 44.1 °F 41.5 °F 35.1 °F 71% 30.06 in 10.0 mi South 4.6 mph - N/A   Overcast
4:13 PM 45.0 °F 40.6 °F 36.0 °F 71% 30.03 in 10.0 mi South 8.1 mph - N/A   Overcast
4:20 PM 45.0 °F 40.6 °F 36.0 °F 71% 30.03 in 10.0 mi South 8.1 mph - N/A   Overcast
4:53 PM 45.0 °F 41.8 °F 37.0 °F 74% 30.06 in 10.0 mi SSW 5.8 mph - N/A   Mostly Cloudy
5:02 PM 45.0 °F 41.8 °F 36.0 °F 71% 30.03 in 10.0 mi SSW 5.8 mph - N/A   Overcast
5:45 PM 45.0 °F 41.8 °F 36.0 °F 71% 30.01 in 10.0 mi South 5.8 mph - N/A   Scattered Clouds
5:53 PM 46.0 °F 43.9 °F 37.0 °F 71% 30.03 in 10.0 mi SSE 4.6 mph - N/A   Partly Cloudy
6:32 PM 45.0 °F 41.2 °F 36.0 °F 71% 30.00 in 10.0 mi South 6.9 mph - N/A   Mostly Cloudy
6:53 PM 45.0 °F 41.8 °F 37.0 °F 74% 30.03 in 10.0 mi SSE 5.8 mph - N/A   Overcast
7:53 PM 43.0 °F 39.5 °F 37.0 °F 80% 30.04 in 10.0 mi ESE 5.8 mph - N/A   Overcast
8:27 PM 42.1 °F 37.7 °F 37.0 °F 82% 30.00 in 10.0 mi SE 6.9 mph - N/A   Scattered Clouds
8:53 PM 41.0 °F 37.1 °F 37.0 °F 86% 30.03 in 10.0 mi SE 5.8 mph - N/A   Clear
9:53 PM 41.0 °F 37.1 °F 36.0 °F 82% 30.03 in 10.0 mi SSE 5.8 mph - N/A   Clear
10:53 PM 39.9 °F 33.9 °F 36.0 °F 86% 30.03 in 10.0 mi SSE 9.2 mph - N/A   Clear
11:53 PM 37.9 °F 32.1 °F 36.0 °F 93% 30.01 in 10.0 mi SE 8.1 mph - N/A   Clear